Location: Unspecified
(0.0000°N, 0.0000°E)
Time: 18:23:47
(UTC+00:00)

STARLINK 1025 - Pass Details

Date: 19 January 2020
Orbit: 346 x 354 km, 53.0° (Epoch: 18 January)

Event Time Altitude Azimuth Distance (km) Brightness Sun altitude
Exits shadow 04:46:21 30° 35° (NE) 643 4.1 -19.7°
Drops below altitude 10° 04:47:58 10° 35° (NE) 1,288 5.7 -19.3°
Sets 04:49:58 0° 34° (NE) 2,125 6.8 -18.8°
